This demonstration page uses our WeatherBlox Daily Observations layout. Learn more.

Left ArrowRight Arrow

Hourly Observations for July 20, 2022

Temp ( °F °C ) Dew Point ( °F °C ) Humidity (%) Winds ( mph kmh ) Pressure ( in mb ) Visibility ( mi km ) Precip ( " mm )
12:53 am 00:53 Clear 62 16.7 53 11.7 73 73 Calm 30.02 1017 10 16 0.00 0.00
1:53 am 01:53 Clear 58 14.4 50 10 75 75 Calm 30.04 1017 10 16 0.00 0.00
2:53 am 02:53 Mostly Clear 61 16.1 51 10.6 70 70 Calm 30.03 1017 10 16 0.00 0.00
3:53 am 03:53 Clear 57 13.9 52 11.1 83 83 E 5 7 30.03 1017 10 16 0.00 0.00
4:53 am 04:53 Clear 55 12.8 51 10.6 87 87 Calm 30.08 1019 10 16 0.00 0.00
5:53 am 05:53 Clear 54 12.2 50 10 87 87 Calm 30.13 1020 10 16 0.00 0.00
6:53 am 06:53 Mostly Sunny 56 13.3 49 9.4 77 77 Calm 30.13 1020 10 16 0.00 0.00
7:53 am 07:53 Sunny 63 17.2 51 10.6 65 65 Calm 30.13 1020 10 16 0.00 0.00
8:53 am 08:53 Sunny 68 20 52 11.1 57 57 Calm 30.12 1020 10 16 0.00 0.00
9:53 am 09:53 Partly Cloudy 75 23.9 54 12.2 48 48 NNW 7 11 30.11 1020 10 16 0.00 0.00
10:53 am 10:53 Sunny 81 27.2 46 7.8 29 29 VRB 6 9 30.09 1019 10 16 0.00 0.00
11:53 am 11:53 Sunny 83 28.3 48 8.9 30 30 VRB 6 9 30.06 1018 10 16 0.00 0.00
12:53 pm 12:53 Sunny 86 30 46 7.8 25 25 WNW 8 13 30.05 1018 10 16 0.00 0.00
1:53 pm 13:53 Mostly Cloudy 86 30 45 7.2 24 24 NW 10 17 30.05 1018 10 16 0.00 0.00
2:53 pm 14:53 Sunny 89 31.7 42 5.6 19 19 NNW 8 13 30.01 1016 10 16 0.00 0.00
3:53 pm 15:53 Mostly Sunny 90 32.2 37 2.8 15 15 W 6 9 29.99 1016 10 16 0.00 0.00
4:53 pm 16:53 Mostly Sunny 91 32.8 36 2.2 14 14 NW 8 13 29.99 1016 10 16 0.00 0.00
5:53 pm 17:53 Sunny 90 32.2 33 0.6 13 13 NW 10 17 29.98 1015 10 16 0.00 0.00
6:53 pm 18:53 Sunny 89 31.7 38 3.3 16 16 WNW 7 11 29.96 1015 10 16 0.00 0.00
7:53 pm 19:53 Sunny 80 26.7 45 7.2 29 29 W 5 7 29.96 1015 10 16 0.00 0.00
8:53 pm 20:53 Clear 71 21.7 43 6.1 36 36 Calm 29.98 1015 10 16 0.00 0.00
9:53 pm 21:53 Clear 65 18.3 44 6.7 47 47 SSW 3 6 30.01 1016 10 16 0.00 0.00
10:53 pm 22:53 Clear 60 15.6 41 5 50 50 Calm 30.01 1016 10 16 0.00 0.00
11:53 pm 23:53 Clear 57 13.9 42 5.6 58 58 Calm 30.02 1017 10 16 0.00 0.00

Powered by AerisWeather